This demonstration page uses our WeatherBlox Daily Observations layout. Learn more.

Left ArrowRight Arrow

Hourly Observations for February 9, 2015

Temp ( °F °C ) Dew Point ( °F °C ) Humidity (%) Winds ( mph kmh ) Pressure ( in mb ) Visibility ( mi km ) Precip ( " mm )
12:53 am 00:53 Clear 45 7.2 31 -0.6 58 58 NNW 6 9 30.05 1018 10 16 0.00 0.00
1:53 am 01:53 Clear 44 6.7 31 -0.6 60 60 N 5 7 30.05 1018 10 16 0.00 0.00
2:53 am 02:53 Clear 41 5 31 -0.6 67 67 N 7 11 30.06 1018 10 16 0.00 0.00
3:53 am 03:53 Clear 40 4.4 31 -0.6 70 70 N 7 11 30.06 1018 10 16 0.00 0.00
4:53 am 04:53 Clear 39 3.9 30 -1.1 70 70 NNE 5 7 30.06 1018 10 16 0.00 0.00
5:53 am 05:53 Clear 39 3.9 30 -1.1 70 70 NNW 7 11 30.08 1019 10 16 0.00 0.00
6:53 am 06:53 Clear 38 3.3 30 -1.1 73 73 NNW 8 13 30.11 1020 10 16 0.00 0.00
7:53 am 07:53 Sunny 39 3.9 30 -1.1 70 70 N 6 9 30.14 1021 10 16 0.00 0.00
8:53 am 08:53 Sunny 47 8.3 33 0.6 59 59 NNE 5 7 30.15 1021 10 16 0.00 0.00
9:53 am 09:53 Sunny 58 14.4 32 0 38 38 ESE 5 7 30.15 1021 10 16 0.00 0.00
10:53 am 10:53 Sunny 66 18.9 33 0.6 29 29 ESE 6 9 30.15 1021 10 16 0.00 0.00
11:53 am 11:53 Sunny 72 22.2 26 -3.3 18 18 S 15 24 30.13 1020 10 16 0.00 0.00
12:53 pm 12:53 Sunny 74 23.3 23 -5 15 15 S 14 22 30.09 1019 10 16 0.00 0.00
1:53 pm 13:53 Sunny 76 24.4 24 -4.4 14 14 S 12 19 30.04 1017 10 16 0.00 0.00
2:53 pm 14:53 Sunny 78 25.6 24 -4.4 13 13 SSE 10 17 30.01 1016 10 16 0.00 0.00
3:53 pm 15:53 Sunny 79 26.1 24 -4.4 13 13 SSE 15 24 29.98 1015 10 16 0.00 0.00
4:53 pm 16:53 Sunny 80 26.7 21 -6.1 11 11 SE 13 20 29.95 1014 10 16 0.00 0.00
5:53 pm 17:53 Sunny 77 25 22 -5.6 13 13 SSE 9 15 29.95 1014 10 16 0.00 0.00
6:53 pm 18:53 Clear 69 20.6 24 -4.4 18 18 ESE 8 13 29.97 1015 10 16 0.00 0.00
7:53 pm 19:53 Clear 65 18.3 24 -4.4 21 21 ESE 9 15 29.97 1015 10 16 0.00 0.00
8:53 pm 20:53 Clear 63 17.2 23 -5 22 22 SE 13 20 29.96 1015 10 16 0.00 0.00
9:53 pm 21:53 Clear 58 14.4 26 -3.3 29 29 SE 12 19 29.96 1015 10 16 0.00 0.00
10:53 pm 22:53 Clear 55 12.8 28 -2.2 35 35 SE 13 20 29.95 1014 10 16 0.00 0.00
11:53 pm 23:53 Clear 56 13.3 30 -1.1 37 37 SE 14 22 29.93 1014 10 16 0.00 0.00

Powered by AerisWeather